| time (UTC) | temp F | wind direction | speed MPH | gust MPH | rain 1hr in | rain 24hr in | rain mn in | humidity % | barometer mb |
| 20260906012438 | 66 | 292 | 0.0 | 3.0 | 0.00 | 0.01 | 0.01 | 70 | 1014.8 |
| 20260906012008 | 66 | 132 | 0.0 | 4.0 | 0.00 | 0.01 | 0.01 | 70 | 1014.8 |
| 20260906011508 | 66 | 68 | 0.0 | 4.0 | 0.00 | 0.01 | 0.01 | 70 | 1014.8 |
| 20260906011007 | 66 | 75 | 2.0 | 3.0 | 0.00 | 0.01 | 0.01 | 71 | 1014.8 |
| 20260906010508 | 66 | 104 | 3.0 | 3.0 | 0.00 | 0.01 | 0.01 | 70 | 1014.8 |
| 20260906010007 | 66 | 213 | 0.0 | 0.0 | 0.00 | 0.01 | 0.01 | 71 | 1014.8 |
| 20260906005509 | 66 | 219 | 0.0 | 0.0 | 0.00 | 0.01 | 0.01 | 70 | 1014.8 |
| 20260906005008 | 66 | 181 | 0.0 | 0.0 | 0.00 | 0.01 | 0.01 | 69 | 1014.8 |
| 20260906004007 | 67 | 236 | 0.0 | 0.0 | 0.00 | 0.01 | 0.01 | 69 | 1014.8 |
| 20260906003507 | 67 | 250 | 0.0 | 0.0 | 0.00 | 0.01 | 0.01 | 69 | 1014.8 |
| 20260906003007 | 67 | 263 | 0.0 | 0.0 | 0.00 | 0.01 | 0.01 | 69 | 1014.8 |
| 20260906002438 | 68 | 262 | 0.0 | 0.0 | 0.00 | 0.01 | 0.01 | 68 | 1014.7 |
| 20260906002007 | 68 | 49 | 0.0 | 2.0 | 0.00 | 0.01 | 0.01 | 65 | 1014.7 |
| 20260906001508 | 68 | 38 | 0.0 | 4.0 | 0.00 | 0.01 | 0.01 | 65 | 1014.7 |
| 20260906001008 | 68 | 243 | 0.0 | 4.0 | 0.00 | 0.01 | 0.01 | 64 | 1014.8 |
| 20260906000507 | 68 | 192 | 0.0 | 0.0 | 0.00 | 0.01 | 0.01 | 65 | 1014.8 |
| 20260906000007 | 68 | 270 | 0.0 | 0.0 | 0.00 | 0.01 | 0.01 | 65 | 1014.8 |
| 20260905235437 | 68 | 283 | 0.0 | 1.0 | 0.00 | 0.01 | 0.01 | 65 | 1014.8 |
| 20260905234507 | 69 | 318 | 0.0 | 2.0 | 0.00 | 0.01 | 0.01 | 62 | 1014.8 |
| 20260905233937 | 69 | 27 | 0.0 | 3.0 | 0.00 | 0.01 | 0.01 | 61 | 1014.9 |
| 20260905233007 | 69 | 261 | 0.0 | 0.0 | 0.00 | 0.01 | 0.01 | 64 | 1014.9 |
| 20260905231437 | 68 | 256 | 0.0 | 0.0 | 0.00 | 0.01 | 0.01 | 65 | 1015.0 |
| 20260905230937 | 68 | 266 | 0.0 | 0.0 | 0.00 | 0.01 | 0.01 | 65 | 1015.1 |
| 20260905230507 | 68 | 277 | 0.0 | 2.0 | 0.00 | 0.01 | 0.01 | 66 | 1015.1 |
| 20260905225507 | 67 | 304 | 2.0 | 3.0 | 0.00 | 0.01 | 0.01 | 66 | 1015.2 |
| 20260905225007 | 67 | 292 | 0.0 | 0.0 | 0.00 | 0.01 | 0.01 | 69 | 1015.2 |
| 20260905224437 | 67 | 286 | 0.0 | 1.0 | 0.00 | 0.01 | 0.01 | 69 | 1015.2 |
| 20260905224007 | 67 | 5 | 0.0 | 1.0 | 0.00 | 0.01 | 0.01 | 69 | 1015.3 |
| 20260905223007 | 66 | 125 | 0.0 | 1.0 | 0.00 | 0.01 | 0.01 | 70 | 1015.3 |
| 20260905222507 | 66 | 65 | 0.0 | 4.0 | 0.00 | 0.01 | 0.01 | 71 | 1015.4 |
| 20260905221507 | 66 | 360 | 3.0 | 4.0 | 0.00 | 0.01 | 0.01 | 70 | 1015.4 |
| 20260905220937 | 66 | 63 | 1.0 | 3.0 | 0.00 | 0.01 | 0.01 | 71 | 1015.5 |
| 20260905220507 | 66 | 355 | 0.0 | 3.0 | 0.00 | 0.01 | 0.01 | 69 | 1015.5 |
| 20260905220007 | 66 | 74 | 2.0 | 3.0 | 0.00 | 0.01 | 0.01 | 67 | 1015.5 |
| 20260905215507 | 66 | 64 | 0.0 | 3.0 | 0.00 | 0.01 | 0.01 | 65 | 1015.6 |
| 20260905215006 | 67 | 66 | 0.0 | 3.0 | 0.00 | 0.01 | 0.01 | 66 | 1015.6 |
| 20260905214507 | 67 | 40 | 3.0 | 5.0 | 0.00 | 0.01 | 0.01 | 64 | 1015.6 |
| 20260905214007 | 67 | 55 | 2.0 | 5.0 | 0.00 | 0.01 | 0.01 | 64 | 1015.7 |
| 20260905213506 | 67 | 19 | 1.0 | 6.0 | 0.00 | 0.01 | 0.01 | 64 | 1015.7 |
| 20260905213007 | 67 | 105 | 1.0 | 6.0 | 0.00 | 0.01 | 0.01 | 63 | 1015.7 |
| 20260905212437 | 67 | 64 | 1.0 | 5.0 | 0.00 | 0.01 | 0.01 | 65 | 1015.8 |
| 20260905212006 | 66 | 142 | 0.0 | 2.0 | 0.00 | 0.01 | 0.01 | 66 | 1015.8 |
| 20260905211437 | 66 | 161 | 0.0 | 3.0 | 0.00 | 0.01 | 0.01 | 65 | 1015.8 |
| 20260905211007 | 66 | 161 | 2.0 | 3.0 | 0.00 | 0.01 | 0.01 | 65 | 1015.9 |
| 20260905210507 | 66 | 5 | 0.0 | 3.0 | 0.00 | 0.01 | 0.01 | 68 | 1015.9 |
| 20260905210006 | 66 | 26 | 0.0 | 3.0 | 0.00 | 0.01 | 0.01 | 70 | 1015.9 |
| 20260905205507 | 66 | 27 | 3.0 | 6.0 | 0.00 | 0.01 | 0.01 | 69 | 1016.1 |
| 20260905205007 | 66 | 24 | 1.0 | 6.0 | 0.00 | 0.01 | 0.01 | 68 | 1016.1 |
| 20260905204436 | 66 | 40 | 0.0 | 5.0 | 0.00 | 0.01 | 0.01 | 69 | 1016.1 |
| 20260905204006 | 66 | 32 | 0.0 | 5.0 | 0.00 | 0.01 | 0.01 | 69 | 1016.2 |
| 20260905203506 | 66 | 334 | 0.0 | 3.0 | 0.00 | 0.01 | 0.01 | 73 | 1016.2 |
| 20260905202936 | 65 | 257 | 0.0 | 2.0 | 0.00 | 0.01 | 0.01 | 74 | 1016.2 |
| 20260905202506 | 64 | 168 | 0.0 | 2.0 | 0.00 | 0.01 | 0.01 | 75 | 1016.1 |
| 20260905202006 | 64 | 142 | 0.0 | 4.0 | 0.00 | 0.01 | 0.01 | 74 | 1016.1 |
| 20260905201436 | 63 | 125 | 0.0 | 4.0 | 0.00 | 0.01 | 0.01 | 75 | 1016.1 |
| 20260905201006 | 63 | 68 | 2.0 | 3.0 | 0.00 | 0.02 | 0.01 | 76 | 1016.2 |
| 20260905200436 | 63 | 153 | 0.0 | 4.0 | 0.00 | 0.02 | 0.01 | 76 | 1016.2 |
| 20260905195936 | 63 | 122 | 3.0 | 4.0 | 0.00 | 0.03 | 0.01 | 76 | 1016.2 |
| 20260905195436 | 63 | 162 | 0.0 | 5.0 | 0.00 | 0.03 | 0.01 | 78 | 1016.3 |
| 20260905194936 | 63 | 155 | 2.0 | 6.0 | 0.00 | 0.03 | 0.01 | 79 | 1016.3 |
| 20260905194506 | 63 | 153 | 2.0 | 6.0 | 0.00 | 0.04 | 0.01 | 79 | 1016.3 |
| 20260905193936 | 63 | 134 | 0.0 | 5.0 | 0.00 | 0.06 | 0.01 | 79 | 1016.4 |
| 20260905193506 | 63 | 17 | 2.0 | 5.0 | 0.00 | 0.09 | 0.01 | 79 | 1016.4 |
| 20260905193006 | 63 | 142 | 2.0 | 5.0 | 0.00 | 0.10 | 0.01 | 79 | 1016.4 |
| 20260905192006 | 64 | 74 | 0.0 | 6.0 | 0.00 | 0.13 | 0.01 | 80 | 1016.4 |
| 20260905191436 | 63 | 28 | 1.0 | 6.0 | 0.00 | 0.13 | 0.01 | 79 | 1016.4 |
| 20260905190936 | 62 | 146 | 3.0 | 5.0 | 0.00 | 0.14 | 0.01 | 82 | 1016.6 |
| 20260905190436 | 62 | 22 | 4.0 | 5.0 | 0.00 | 0.16 | 0.01 | 82 | 1016.6 |
| 20260905190005 | 62 | 82 | 2.0 | 4.0 | 0.00 | 0.19 | 0.01 | 85 | 1016.6 |
| 20260905185505 | 62 | 360 | 0.0 | 3.0 | 0.00 | 0.20 | 0.01 | 87 | 1016.5 |
| 20260905185005 | 61 | 360 | 1.0 | 5.0 | 0.00 | 0.20 | 0.01 | 89 | 1016.5 |
| 20260905184505 | 61 | 360 | 1.0 | 5.0 | 0.00 | 0.20 | 0.01 | 91 | 1016.5 |
| 20260905184005 | 60 | 360 | 1.0 | 3.0 | 0.00 | 0.20 | 0.01 | 93 | 1016.6 |
| 20260905183006 | 60 | 109 | 2.0 | 4.0 | 0.00 | 0.20 | 0.01 | 93 | 1016.6 |
| 20260905182005 | 59 | 132 | 0.0 | 0.0 | 0.00 | 0.20 | 0.01 | 95 | 1016.7 |
| 20260905180935 | 59 | 159 | 0.0 | 4.0 | 0.00 | 0.20 | 0.01 | 95 | 1016.5 |
| 20260905180506 | 59 | 61 | 1.0 | 4.0 | 0.00 | 0.20 | 0.01 | 96 | 1016.5 |
| 20260905174936 | 59 | 360 | 1.0 | 4.0 | 0.01 | 0.20 | 0.01 | 99 | 1016.6 |
| 20260905174505 | 59 | 360 | 1.0 | 4.0 | 0.01 | 0.20 | 0.01 | 100 | 1016.6 |
| 20260905174006 | 59 | 360 | 2.0 | 4.0 | 0.01 | 0.20 | 0.01 | 100 | 1016.6 |
| 20260905173005 | 58 | 108 | 3.0 | 3.0 | 0.01 | 0.20 | 0.01 | 100 | 1016.5 |
| 20260905172505 | 58 | 360 | 1.0 | 3.0 | 0.01 | 0.20 | 0.01 | 100 | 1016.4 |
| 20260905172005 | 58 | 360 | 2.0 | 3.0 | 0.01 | 0.20 | 0.01 | 100 | 1016.4 |
| 20260905171505 | 58 | 128 | 2.0 | 3.0 | 0.01 | 0.20 | 0.01 | 100 | 1016.4 |
| 20260905170006 | 57 | 146 | 0.0 | 3.0 | 0.01 | 0.20 | 0.01 | 100 | 1016.4 |
| 20260905165505 | 57 | 124 | 2.0 | 3.0 | 0.01 | 0.20 | 0.01 | 100 | 1016.5 |
| 20260905164005 | 57 | 157 | 1.0 | 3.0 | 0.00 | 0.19 | 0.00 | 100 | 1016.4 |
| 20260905163505 | 57 | 133 | 1.0 | 3.0 | 0.00 | 0.19 | 0.00 | 100 | 1016.4 |
| 20260905163005 | 57 | 176 | 0.0 | 3.0 | 0.00 | 0.19 | 0.00 | 100 | 1016.4 |
| 20260905162005 | 57 | 105 | 2.0 | 4.0 | 0.00 | 0.19 | 0.00 | 100 | 1016.4 |
| 20260905161505 | 57 | 88 | 0.0 | 4.0 | 0.00 | 0.19 | 0.00 | 100 | 1016.4 |
| 20260905161004 | 56 | 63 | 2.0 | 3.0 | 0.00 | 0.19 | 0.00 | 100 | 1016.5 |
| 20260905160505 | 57 | 53 | 1.0 | 3.0 | 0.00 | 0.19 | 0.00 | 100 | 1016.5 |
| 20260905160004 | 56 | 133 | 1.0 | 3.0 | 0.00 | 0.19 | 0.00 | 100 | 1016.5 |
| 20260905154505 | 56 | 138 | 1.0 | 2.0 | 0.00 | 0.19 | 0.00 | 98 | 1016.5 |
| 20260905154005 | 56 | 148 | 0.0 | 2.0 | 0.00 | 0.19 | 0.00 | 98 | 1016.4 |
| 20260905153504 | 56 | 142 | 1.0 | 2.0 | 0.00 | 0.19 | 0.00 | 97 | 1016.4 |
| 20260905153004 | 56 | 160 | 2.0 | 2.0 | 0.00 | 0.19 | 0.00 | 98 | 1016.4 |
| 20260905152504 | 56 | 155 | 0.0 | 3.0 | 0.00 | 0.19 | 0.00 | 97 | 1016.3 |
| 20260905151005 | 56 | 160 | 1.0 | 3.0 | 0.00 | 0.19 | 0.00 | 100 | 1016.3 |
| 20260905150505 | 56 | 162 | 0.0 | 2.0 | 0.00 | 0.19 | 0.00 | 100 | 1016.3 |
| 20260905150005 | 56 | 171 | 1.0 | 2.0 | 0.00 | 0.19 | 0.00 | 100 | 1016.3 |
| 20260905145504 | 56 | 169 | 0.0 | 0.0 | 0.00 | 0.19 | 0.00 | 100 | 1016.4 |
| 20260905145005 | 56 | 169 | 0.0 | 0.0 | 0.00 | 0.19 | 0.00 | 100 | 1016.4 |
| 20260905144505 | 56 | 124 | 0.0 | 0.0 | 0.00 | 0.19 | 0.00 | 100 | 1016.4 |
| 20260905144005 | 56 | 123 | 0.0 | 2.0 | 0.00 | 0.19 | 0.00 | 100 | 1016.3 |
| 20260905143504 | 56 | 117 | 0.0 | 2.0 | 0.00 | 0.19 | 0.00 | 100 | 1016.3 |
| 20260905143004 | 56 | 115 | 0.0 | 0.0 | 0.00 | 0.19 | 0.00 | 100 | 1016.3 |
| 20260905141504 | 56 | 115 | 0.0 | 2.0 | 0.00 | 0.19 | 0.00 | 100 | 1016.2 |
| 20260905141004 | 56 | 115 | 0.0 | 2.0 | 0.00 | 0.19 | 0.00 | 100 | 1016.2 |
| 20260905140504 | 56 | 116 | 1.0 | 2.0 | 0.00 | 0.19 | 0.00 | 100 | 1016.2 |
| 20260905140005 | 56 | 116 | 0.0 | 0.0 | 0.00 | 0.19 | 0.00 | 100 | 1016.2 |
| 20260905135004 | 56 | 115 | 0.0 | 0.0 | 0.00 | 0.19 | 0.00 | 100 | 1016.3 |
| 20260905134504 | 56 | 126 | 0.0 | 0.0 | 0.00 | 0.19 | 0.00 | 100 | 1016.3 |
| 20260905134005 | 56 | 126 | 0.0 | 0.0 | 0.00 | 0.19 | 0.00 | 100 | 1016.2 |
| 20260905133504 | 56 | 126 | 0.0 | 1.0 | 0.00 | 0.19 | 0.00 | 100 | 1016.2 |
| 20260905133004 | 56 | 126 | 0.0 | 2.0 | 0.00 | 0.19 | 0.00 | 100 | 1016.2 |
| 20260905132504 | 56 | 126 | 0.0 | 3.0 | 0.00 | 0.19 | 0.00 | 100 | 1016.2 |
| 20260905132004 | 56 | 134 | 0.0 | 3.0 | 0.00 | 0.19 | 0.00 | 100 | 1016.2 |
| 20260905131504 | 56 | 156 | 0.0 | 2.0 | 0.00 | 0.19 | 0.00 | 100 | 1016.2 |
| 20260905131005 | 56 | 156 | 0.0 | 2.0 | 0.00 | 0.19 | 0.00 | 100 | 1016.1 |
| 20260905130504 | 56 | 156 | 0.0 | 1.0 | 0.00 | 0.19 | 0.00 | 100 | 1016.1 |
| 20260905130004 | 56 | 156 | 0.0 | 0.0 | 0.00 | 0.19 | 0.00 | 100 | 1016.1 |
| 20260905125004 | 56 | 156 | 0.0 | 0.0 | 0.00 | 0.19 | 0.00 | 100 | 1016.0 |
| 20260905124504 | 56 | 156 | 0.0 | 0.0 | 0.00 | 0.19 | 0.00 | 100 | 1016.0 |
| 20260905124004 | 56 | 156 | 0.0 | 0.0 | 0.00 | 0.19 | 0.00 | 100 | 1015.9 |
| 20260905123504 | 56 | 156 | 0.0 | 0.0 | 0.00 | 0.19 | 0.00 | 100 | 1015.9 |
| 20260905123004 | 56 | 156 | 0.0 | 0.0 | 0.00 | 0.19 | 0.00 | 99 | 1015.9 |
| 20260905121004 | 56 | 156 | 0.0 | 0.0 | 0.00 | 0.22 | 0.00 | 99 | 1015.7 |
| 20260905120505 | 56 | 156 | 0.0 | 0.0 | 0.00 | 0.22 | 0.00 | 98 | 1015.7 |
| 20260905120004 | 56 | 156 | 0.0 | 0.0 | 0.00 | 0.22 | 0.00 | 98 | 1015.7 |
| 20260905115504 | 56 | 156 | 0.0 | 0.0 | 0.00 | 0.22 | 0.00 | 98 | 1015.8 |
| 20260905115004 | 56 | 156 | 0.0 | 0.0 | 0.00 | 0.22 | 0.00 | 97 | 1015.8 |
| 20260905114504 | 56 | 156 | 0.0 | 0.0 | 0.00 | 0.22 | 0.00 | 97 | 1015.8 |
| 20260905114004 | 56 | 156 | 0.0 | 0.0 | 0.00 | 0.22 | 0.00 | 97 | 1015.8 |
| 20260905113504 | 56 | 156 | 0.0 | 2.0 | 0.00 | 0.22 | 0.00 | 97 | 1015.8 |
| 20260905113004 | 56 | 156 | 0.0 | 3.0 | 0.00 | 0.22 | 0.00 | 96 | 1015.8 |
| 20260905112504 | 56 | 156 | 0.0 | 3.0 | 0.00 | 0.22 | 0.00 | 96 | 1015.7 |
| 20260905112004 | 57 | 150 | 3.0 | 3.0 | 0.00 | 0.22 | 0.00 | 96 | 1015.7 |
| 20260905111504 | 57 | 127 | 0.0 | 2.0 | 0.00 | 0.22 | 0.00 | 97 | 1015.7 |
| 20260905111004 | 57 | 155 | 1.0 | 2.0 | 0.00 | 0.22 | 0.00 | 97 | 1015.7 |
| 20260905110504 | 57 | 166 | 2.0 | 2.0 | 0.00 | 0.22 | 0.00 | 97 | 1015.7 |
| 20260905110004 | 56 | 209 | 0.0 | 0.0 | 0.00 | 0.22 | 0.00 | 97 | 1015.7 |
| 20260905105504 | 56 | 209 | 0.0 | 0.0 | 0.00 | 0.22 | 0.00 | 97 | 1015.7 |
| 20260905105004 | 56 | 209 | 0.0 | 0.0 | 0.00 | 0.22 | 0.00 | 97 | 1015.7 |
| 20260905104504 | 56 | 209 | 0.0 | 0.0 | 0.00 | 0.22 | 0.00 | 96 | 1015.7 |
| 20260905104004 | 56 | 209 | 0.0 | 0.0 | 0.00 | 0.22 | 0.00 | 96 | 1015.7 |
| 20260905103504 | 56 | 209 | 0.0 | 0.0 | 0.00 | 0.22 | 0.00 | 96 | 1015.7 |
| 20260905103004 | 56 | 209 | 0.0 | 0.0 | 0.00 | 0.23 | 0.00 | 96 | 1015.7 |
| 20260905102504 | 57 | 209 | 0.0 | 0.0 | 0.00 | 0.23 | 0.00 | 96 | 1015.7 |
| 20260905102004 | 57 | 209 | 0.0 | 0.0 | 0.00 | 0.23 | 0.00 | 96 | 1015.7 |
| 20260905101004 | 56 | 209 | 0.0 | 2.0 | 0.00 | 0.23 | 0.00 | 96 | 1015.7 |
| 20260905100504 | 56 | 209 | 2.0 | 2.0 | 0.00 | 0.23 | 0.00 | 96 | 1015.7 |
| 20260905100004 | 56 | 209 | 0.0 | 3.0 | 0.00 | 0.23 | 0.00 | 96 | 1015.7 |
| 20260905095504 | 56 | 134 | 0.0 | 3.0 | 0.00 | 0.23 | 0.00 | 96 | 1015.6 |
| 20260905095006 | 56 | 139 | 3.0 | 3.0 | 0.00 | 0.23 | 0.00 | 96 | 1015.6 |
| 20260905094504 | 57 | 159 | 0.0 | 2.0 | 0.00 | 0.23 | 0.00 | 96 | 1015.6 |
| 20260905094003 | 57 | 156 | 1.0 | 3.0 | 0.00 | 0.23 | 0.00 | 96 | 1015.6 |
| 20260905093503 | 57 | 156 | 1.0 | 3.0 | 0.00 | 0.23 | 0.00 | 96 | 1015.6 |
| 20260905092503 | 57 | 175 | 0.0 | 1.0 | 0.00 | 0.23 | 0.00 | 96 | 1015.6 |
| 20260905092004 | 57 | 175 | 1.0 | 2.0 | 0.00 | 0.23 | 0.00 | 96 | 1015.6 |
| 20260905091503 | 57 | 175 | 0.0 | 2.0 | 0.00 | 0.23 | 0.00 | 96 | 1015.6 |
| 20260905091004 | 57 | 186 | 0.0 | 1.0 | 0.00 | 0.23 | 0.00 | 96 | 1015.6 |
| 20260905090004 | 57 | 187 | 0.0 | 1.0 | 0.00 | 0.24 | 0.00 | 96 | 1015.6 |
| 20260905085503 | 57 | 186 | 0.0 | 1.0 | 0.00 | 0.24 | 0.00 | 96 | 1015.6 |
| 20260905085003 | 57 | 186 | 0.0 | 2.0 | 0.00 | 0.24 | 0.00 | 96 | 1015.6 |
| 20260905084503 | 57 | 187 | 0.0 | 2.0 | 0.00 | 0.24 | 0.00 | 96 | 1015.6 |
| 20260905084003 | 57 | 198 | 2.0 | 2.0 | 0.00 | 0.25 | 0.00 | 96 | 1015.5 |
| 20260905083503 | 57 | 161 | 0.0 | 0.0 | 0.00 | 0.26 | 0.00 | 96 | 1015.5 |
| 20260905082503 | 57 | 161 | 0.0 | 4.0 | 0.00 | 0.27 | 0.00 | 96 | 1015.3 |
| 20260905082003 | 57 | 158 | 1.0 | 4.0 | 0.00 | 0.28 | 0.00 | 96 | 1015.3 |
| 20260905081503 | 57 | 168 | 1.0 | 2.0 | 0.00 | 0.29 | 0.00 | 96 | 1015.3 |
| 20260905081003 | 57 | 184 | 0.0 | 1.0 | 0.00 | 0.30 | 0.00 | 96 | 1015.2 |
| 20260905075503 | 57 | 184 | 0.0 | 1.0 | 0.00 | 0.33 | 0.00 | 96 | 1015.0 |
| 20260905075003 | 57 | 184 | 0.0 | 1.0 | 0.00 | 0.34 | 0.00 | 96 | 1015.0 |
| 20260905074503 | 57 | 184 | 1.0 | 1.0 | 0.00 | 0.34 | 0.00 | 96 | 1015.0 |
| 20260905074003 | 57 | 185 | 0.0 | 2.0 | 0.00 | 0.34 | 0.00 | 96 | 1015.0 |
| 20260905073503 | 57 | 185 | 0.0 | 3.0 | 0.00 | 0.35 | 0.00 | 96 | 1015.0 |
| 20260905073003 | 57 | 185 | 2.0 | 3.0 | 0.00 | 0.35 | 0.00 | 95 | 1015.0 |
| 20260905072003 | 57 | 144 | 0.0 | 3.0 | 0.00 | 0.35 | 0.00 | 95 | 1014.9 |
| 20260905071503 | 57 | 144 | 0.0 | 3.0 | 0.00 | 0.35 | 0.00 | 95 | 1014.9 |
| 20260905071003 | 57 | 140 | 1.0 | 3.0 | 0.00 | 0.35 | 0.00 | 95 | 1015.0 |
| 20260905070503 | 57 | 120 | 0.0 | 0.0 | 0.00 | 0.35 | 0.00 | 95 | 1015.0 |
| 20260905070003 | 57 | 114 | 0.0 | 0.0 | 0.00 | 0.35 | 0.00 | 94 | 1015.0 |
| 20260905065003 | 57 | 112 | 0.0 | 0.0 | 0.00 | 0.35 | 0.35 | 94 | 1015.1 |
| 20260905064502 | 57 | 110 | 0.0 | 0.0 | 0.00 | 0.35 | 0.35 | 94 | 1015.1 |
| 20260905064003 | 57 | 102 | 0.0 | 0.0 | 0.00 | 0.35 | 0.35 | 94 | 1014.9 |
| 20260905063002 | 57 | 100 | 0.0 | 2.0 | 0.00 | 0.36 | 0.35 | 93 | 1014.9 |
| 20260905062003 | 57 | 99 | 0.0 | 0.0 | 0.00 | 0.36 | 0.35 | 93 | 1014.7 |
| 20260905060502 | 57 | 98 | 0.0 | 0.0 | 0.00 | 0.36 | 0.35 | 93 | 1014.8 |
| 20260905060003 | 57 | 96 | 0.0 | 0.0 | 0.00 | 0.36 | 0.35 | 93 | 1014.8 |
| 20260905055502 | 57 | 117 | 0.0 | 0.0 | 0.00 | 0.36 | 0.35 | 92 | 1014.7 |
| 20260905055002 | 57 | 117 | 0.0 | 0.0 | 0.00 | 0.36 | 0.35 | 92 | 1014.7 |
| 20260905054002 | 57 | 117 | 0.0 | 0.0 | 0.00 | 0.36 | 0.35 | 92 | 1014.6 |
| 20260905053503 | 57 | 117 | 0.0 | 0.0 | 0.00 | 0.36 | 0.35 | 92 | 1014.6 |
| 20260905053003 | 57 | 117 | 0.0 | 0.0 | 0.00 | 0.36 | 0.35 | 92 | 1014.6 |
| 20260905052503 | 57 | 117 | 0.0 | 0.0 | 0.00 | 0.36 | 0.35 | 92 | 1014.5 |
| 20260905052003 | 57 | 117 | 0.0 | 0.0 | 0.00 | 0.36 | 0.35 | 92 | 1014.5 |
| 20260905051003 | 57 | 121 | 0.0 | 0.0 | 0.00 | 0.36 | 0.35 | 91 | 1014.6 |
| 20260905050502 | 57 | 121 | 0.0 | 0.0 | 0.00 | 0.36 | 0.35 | 91 | 1014.6 |
| 20260905050003 | 57 | 121 | 0.0 | 0.0 | 0.00 | 0.36 | 0.35 | 90 | 1014.6 |
| 20260905045502 | 57 | 121 | 0.0 | 0.0 | 0.00 | 0.36 | 0.35 | 90 | 1014.5 |
| 20260905044503 | 57 | 121 | 0.0 | 0.0 | 0.00 | 0.36 | 0.35 | 89 | 1014.5 |
| 20260905043502 | 57 | 121 | 0.0 | 0.0 | 0.00 | 0.36 | 0.35 | 88 | 1014.4 |
| 20260905043002 | 57 | 121 | 0.0 | 0.0 | 0.00 | 0.36 | 0.35 | 88 | 1014.4 |
| 20260905042502 | 57 | 121 | 0.0 | 2.0 | 0.00 | 0.36 | 0.35 | 88 | 1014.3 |
| 20260905042002 | 58 | 121 | 0.0 | 3.0 | 0.00 | 0.36 | 0.35 | 88 | 1014.3 |
| 20260905041502 | 58 | 138 | 1.0 | 3.0 | 0.00 | 0.36 | 0.35 | 87 | 1014.3 |
| 20260905041002 | 58 | 170 | 0.0 | 2.0 | 0.00 | 0.36 | 0.35 | 87 | 1014.2 |
| 20260905040502 | 58 | 185 | 0.0 | 4.0 | 0.00 | 0.36 | 0.35 | 87 | 1014.2 |
| 20260905040002 | 58 | 201 | 1.0 | 4.0 | 0.00 | 0.36 | 0.35 | 87 | 1014.2 |
| 20260905035502 | 58 | 190 | 0.0 | 5.0 | 0.00 | 0.36 | 0.35 | 87 | 1014.1 |
| 20260905035002 | 58 | 155 | 0.0 | 5.0 | 0.00 | 0.36 | 0.35 | 87 | 1014.1 |
| 20260905034501 | 58 | 169 | 0.0 | 1.0 | 0.00 | 0.36 | 0.35 | 87 | 1014.1 |
| 20260905033502 | 58 | 190 | 0.0 | 3.0 | 0.00 | 0.36 | 0.35 | 86 | 1014.0 |
| 20260905033001 | 58 | 140 | 0.0 | 2.0 | 0.00 | 0.36 | 0.35 | 86 | 1014.0 |
| 20260905032502 | 58 | 151 | 0.0 | 2.0 | 0.00 | 0.36 | 0.35 | 86 | 1013.8 |
| 20260905032002 | 58 | 159 | 0.0 | 2.0 | 0.00 | 0.36 | 0.35 | 85 | 1013.8 |
| 20260905031502 | 59 | 155 | 0.0 | 2.0 | 0.00 | 0.36 | 0.35 | 85 | 1013.8 |
| 20260905030001 | 59 | 196 | 0.0 | 4.0 | 0.00 | 0.37 | 0.35 | 84 | 1013.6 |
| 20260905025501 | 59 | 189 | 2.0 | 4.0 | 0.00 | 0.37 | 0.35 | 83 | 1013.5 |
| 20260905025001 | 59 | 180 | 1.0 | 4.0 | 0.00 | 0.37 | 0.35 | 82 | 1013.5 |
| 20260905024502 | 59 | 161 | 0.0 | 6.0 | 0.00 | 0.37 | 0.35 | 82 | 1013.5 |
| 20260905024002 | 60 | 179 | 1.0 | 6.0 | 0.00 | 0.37 | 0.35 | 82 | 1013.5 |
| 20260905023501 | 60 | 163 | 1.0 | 5.0 | 0.00 | 0.37 | 0.35 | 82 | 1013.5 |
| 20260905022502 | 60 | 172 | 1.0 | 4.0 | 0.00 | 0.38 | 0.35 | 81 | 1013.5 |
| 20260905022001 | 60 | 182 | 0.0 | 4.0 | 0.00 | 0.38 | 0.35 | 80 | 1013.5 |
| 20260905021502 | 60 | 161 | 0.0 | 4.0 | 0.00 | 0.38 | 0.35 | 80 | 1013.5 |
| 20260905020502 | 61 | 194 | 4.0 | 6.0 | 0.00 | 0.38 | 0.35 | 79 | 1013.5 |
| 20260905020001 | 61 | 167 | 0.0 | 2.0 | 0.00 | 0.38 | 0.35 | 79 | 1013.5 |
| 20260905015002 | 61 | 170 | 0.0 | 4.0 | 0.00 | 0.38 | 0.35 | 79 | 1013.5 |
| 20260905014502 | 61 | 173 | 0.0 | 4.0 | 0.00 | 0.38 | 0.35 | 78 | 1013.5 |
| 20260905013502 | 61 | 163 | 2.0 | 4.0 | 0.00 | 0.38 | 0.35 | 76 | 1013.4 |
| 20260905013001 | 61 | 187 | 0.0 | 4.0 | 0.00 | 0.38 | 0.35 | 76 | 1013.4 |